CW4591 Weather Reports


time (UTC)temp
C
wind
direction
speed
KPH
gust
KPH
rain 1hr
cm
rain 24hr
cm
rain mn
cm
humidity
%
barometer
mb
20260506184502 7 179 4.8 17.7 0.00 0.00 0.00 53 1008.2
20260506183102 7 242 6.4 14.5 0.00 0.00 0.00 53 1008.2
20260506181557 7 262 1.6 9.7 0.00 0.00 0.00 55 1008.2
20260506180104 6 232 4.8 8.0 0.00 0.00 0.00 56 1008.3
20260506174551 6 250 1.6 4.8 0.00 0.00 0.00 59 1008.3
20260506173106 6 359 3.2 14.5 0.00 0.00 0.00 58 1008.3
20260506171552 5 283 1.6 6.4 0.00 0.00 0.00 62 1008.3
20260506170046 5 246 3.2 11.3 0.00 0.00 0.00 61 1008.2
20260506164545 5 209 3.2 11.3 0.00 0.00 0.00 62 1008.1
20260506163048 5 220 3.2 9.7 0.00 0.00 0.00 61 1007.9
20260506161552 5 228 1.6 8.0 0.00 0.00 0.00 66 1007.9
20260506160039 5 256 0.0 4.8 0.00 0.00 0.00 64 1007.9
20260506154538 4 201 1.6 12.9 0.00 0.00 0.00 64 1007.7
20260506153038 4 179 0.0 11.3 0.00 0.00 0.00 64 1007.6
20260506151535 3 210 3.2 11.3 0.00 0.00 0.00 67 1007.4
20260506150036 2 201 4.8 14.5 0.00 0.00 0.00 71 1007.4
20260506144532 2 21 0.0 0.0 0.00 0.00 0.00 75 1007.3
20260506143031 2 21 0.0 4.8 0.00 0.00 0.00 74 1007.2
20260506141528 2 21 1.6 4.8 0.00 0.00 0.00 73 1007.1
20260506140027 1 206 3.2 11.3 0.00 0.00 0.00 72 1007.0
20260506134600 1 168 1.6 8.0 0.00 0.00 0.00 74 1007.0
20260506133024 1 201 1.6 8.0 0.00 0.00 0.00 74 1006.9
20260506131527 1 216 3.2 6.4 0.00 0.00 0.00 73 1006.9
20260506130020 1 330 0.0 6.4 0.00 0.00 0.00 72 1006.9
20260506124518 1 233 0.0 0.0 0.00 0.00 0.00 71 1006.8
20260506123014 2 231 0.0 0.0 0.00 0.00 0.00 68 1006.8
20260506121512 2 232 4.8 6.4 0.00 0.00 0.00 66 1006.5
20260506120012 3 359 0.0 6.4 0.00 0.00 0.00 66 1006.4
20260506114519 3 212 4.8 8.0 0.00 0.00 0.00 58 1006.1
20260506113008 4 271 0.0 9.7 0.00 0.00 0.00 56 1006.1
20260506111506 4 206 4.8 12.9 0.00 0.00 0.00 59 1006.0
20260506110011 4 224 3.2 12.9 0.00 0.00 0.00 62 1005.9
20260506104504 4 197 6.4 11.3 0.00 0.00 0.00 63 1005.9
20260506103009 3 220 6.4 12.9 0.00 0.00 0.00 63 1005.9
20260506101600 3 242 3.2 9.7 0.00 0.00 0.00 64 1005.8
20260506100101 2 177 1.6 8.0 0.00 0.00 0.00 67 1005.5
20260506094554 2 299 0.0 3.2 0.00 0.00 0.00 66 1005.6
20260506093055 2 299 0.0 0.0 0.00 0.00 0.00 67 1005.3
20260506091548 3 359 0.0 3.2 0.00 0.00 0.00 63 1005.2
20260506090045 3 299 0.0 6.4 0.00 0.00 0.00 60 1004.9
20260506084542 3 247 0.0 3.2 0.00 0.00 0.00 64 1004.6
20260506083042 4 248 0.0 4.8 0.00 0.00 0.00 57 1004.6
20260506081543 4 359 6.4 12.9 0.00 0.00 0.00 55 1004.2
20260506073032 6 359 0.0 6.4 0.00 0.00 0.00 52 1003.6
20260506071526 6 239 4.8 11.3 0.00 0.00 0.00 48 1003.5
20260506061533 6 207 1.6 8.0 0.00 0.00 0.00 48 1003.1
20260506044519 7 359 12.9 25.7 0.00 0.00 0.00 45 1002.1
20260506043017 7 213 6.4 19.3 0.00 0.00 0.00 47 1002.4
20260506041514 7 195 6.4 19.3 0.00 0.00 0.00 47 1002.4
20260506040018 8 182 9.7 25.7 0.00 0.00 0.00 47 1002.3
20260506034512 8 193 8.0 24.1 0.00 0.00 0.00 43 1002.3
20260506033015 8 209 9.7 17.7 0.00 0.00 0.00 42 1002.2
20260506031511 8 202 8.0 24.1 0.00 0.00 0.00 44 1002.1
20260506030012 8 201 12.9 24.1 0.00 0.00 0.00 46 1002.1
20260506024525 8 197 11.3 30.6 0.00 0.00 0.00 44 1001.9
20260506023008 9 182 6.4 20.9 0.00 0.00 0.00 42 1001.8
20260506021510 10 14 6.4 25.7 0.00 0.00 0.00 39 1001.7
20260506020006 10 294 14.5 29.0 0.00 0.00 0.00 35 1001.7
20260506014511 11 240 9.7 27.4 0.00 0.00 0.00 35 1001.6
20260506013004 11 359 16.1 33.8 0.00 0.00 0.00 33 1001.5
20260506011503 11 268 9.7 24.1 0.00 0.00 0.00 35 1001.4
20260506010001 10 359 11.3 20.9 0.00 0.00 0.00 38 1001.5
20260506004501 10 359 4.8 17.7 0.00 0.00 0.00 41 1001.4
20260506003100 10 253 9.7 19.3 0.00 0.00 0.00 40 1001.4
20260506001603 10 228 6.4 16.1 0.00 0.00 0.00 42 1001.2
20260506000119 10 273 8.0 17.7 0.00 0.00 0.00 42 1001.2
20260505234557 10 209 4.8 12.9 0.00 0.00 0.00 43 1000.9
20260505233059 10 359 11.3 17.7 0.00 0.00 0.00 40 1000.9
20260505231606 11 263 8.0 17.7 0.00 0.00 0.00 39 1000.9
20260505230105 11 359 8.0 19.3 0.00 0.00 0.00 39 1000.9
20260505224557 12 182 6.4 32.2 0.00 0.00 0.00 39 1000.5
20260505223052 11 359 8.0 29.0 0.00 0.00 0.00 39 1000.5
20260505221558 11 267 8.0 24.1 0.00 0.00 0.00 39 1000.4
20260505220051 11 359 11.3 22.5 0.00 0.00 0.00 39 1000.3
20260505214551 11 237 6.4 22.5 0.00 0.00 0.00 38 1000.2
20260505213053 12 359 16.1 32.2 0.00 0.00 0.00 36 1000.2
20260505211550 12 185 14.5 27.4 0.00 0.00 0.00 36 1000.0
20260505210049 12 210 14.5 25.7 0.00 0.00 0.00 36 999.9
20260505204551 12 176 11.3 32.2 0.00 0.00 0.00 36 999.6
20260505203055 12 229 11.3 17.7 0.00 0.00 0.00 38 999.5
20260505201547 12 193 8.0 30.6 0.00 0.00 0.00 37 999.4
20260505200046 11 242 12.9 35.4 0.00 0.00 0.00 40 999.2
20260505194558 12 262 3.2 22.5 0.00 0.00 0.00 39 999.1
20260505193041 11 260 9.7 16.1 0.00 0.00 0.00 41 999.1
20260505191552 12 232 9.7 22.5 0.00 0.00 0.00 40 999.2
20260505190041 12 283 12.9 27.4 0.00 0.00 0.00 41 999.3